Home   Weather   Schweinfurt   Past weeks

Flag for Germany Past Weather in Schweinfurt, Bavaria, Germany — Yesterday and Last 2 Weeks

Now
21 °F

Ice fog.


Feels Like: 21 °F
Forecast: 20 / 33 °F
Wind: No wind

Location: Illesheim

Current Time: Dec 3, 2016 at 8:49:48 pm

Latest Report: Dec 3, 2016 at 7:58 pm


Visibility: 2 mi

Pressure: 30.37 "Hg

Humidity: 98%

Dew Point: 20 °F

Location of SchweinfurtLocation

Past Weather in Schweinfurt — Graph

°F

Schweinfurt Temperature Yesterday

Maximum temperature yesterday: 42 °F (at 11:58 am)
Minimum temperature yesterday: 27 °F (at 9:48 pm)
Average temperature yesterday: 36 °F

High & Low Weather Summary for the Past Weeks

 TemperatureHumidityPressure
High54 °F (Nov 21, 1:58 pm)100% (Nov 22, 10:58 pm)30.63 "Hg (Nov 22, 10:58 pm)
Low15 °F (Nov 29, 7:58 am)55% (Nov 29, 2:58 pm)29.67 "Hg (Nov 21, 1:58 pm)
Average38 °F87%30.14 "Hg
* Reported Nov 18 6:58 pm — Dec 3 6:58 pm, Schweinfurt, Weather by CustomWeather, © 2016

Note: Actual official high and low records may vary slightly from our data, if they occured in-between our weather recording intervals... More about our weather records

Advertising

Schweinfurt Weather History for the Previous 24 Hours

Scroll right to see more
 ConditionsComfort  
Time TempWeatherWind HumidityBarometerVisibility
6:58 pm
Sat, Dec 3
23 °FIce fog.No wind100%30.37 "Hg2 mi
6:46 pm23 °FIce fog.No wind100%30.29 "Hg2 mi
6:00 pm25 °FClear.No wind100%30.27 "HgN/A
5:45 pm27 °FIce fog.No wind100%30.27 "Hg1 mi
4:58 pm29 °FClear.No wind100%30.33 "HgN/A
3:58 pm32 °FSunny.5 mph100%30.32 "HgN/A
2:58 pm32 °FIce fog.No wind100%30.31 "Hg4 mi
1:58 pm32 °FScattered clouds.3 mph100%30.32 "HgN/A
1:52 pm32 °FScattered clouds.No wind100%30.26 "HgN/A
1:04 pm28 °FIce fog.No wind100%30.27 "Hg0 mi
12:56 pm28 °FIce fog.No wind100%30.27 "Hg1 mi
11:58 am27 °FChilly.3 mph100%30.34 "HgN/A
11:48 am27 °FChilly.3 mph100%30.27 "HgN/A
10:58 am26 °FChilly.No wind100%30.34 "HgN/A
10:47 am27 °FIce fog.3 mph100%30.27 "Hg0 mi
9:58 am26 °FIce fog.No wind100%30.34 "Hg0 mi
8:58 am26 °FIce fog.3 mph100%30.34 "Hg1 mi
7:58 am27 °FChilly.5 mph100%30.32 "HgN/A
7:48 am27 °FChilly.6 mph100%30.24 "HgN/A
6:58 am27 °FIce fog.No wind100%30.29 "Hg1 mi
6:48 am27 °FIce fog.3 mph100%30.23 "Hg1 mi
5:58 am28 °FIce fog.No wind100%30.29 "Hg1 mi
4:58 am28 °FIce fog.3 mph100%30.28 "Hg1 mi
3:58 am29 °FLight freezing rain. Ice fog.5 mph100%30.29 "Hg1 mi
2:58 am30 °FIce fog.3 mph100%30.27 "Hg1 mi
1:58 am32 °FIce fog.3 mph100%30.27 "Hg1 mi
12:58 am31 °FIce fog.No wind100%30.27 "Hg1 mi
11:58 pm
Fri, Dec 2
30 °FIce fog.No wind100%30.27 "Hg1 mi
11:48 pm30 °FIce fog.No wind100%30.22 "Hg1 mi
11:00 pm32 °FIce fog.No wind100%30.21 "Hg0 mi
9:58 pm28 °FPassing clouds.No wind100%30.25 "HgN/A
9:53 pm28 °FPassing clouds.No wind100%30.20 "HgN/A
9:48 pm27 °FIce fog.No wind100%30.20 "Hg5 mi
8:58 pm28 °FClear.No wind100%30.24 "HgN/A
Weather by CustomWeather, © 2016

See weather overviewHow to use our weather pages